Tracking 25995 objects as of 20-Aug-2022
HD Live streaming from Space Station
objects crossing your sky now

OBJECT E

Track OBJECT E now!
10-day predictions


NORAD ID: 43853
Int'l Code: 2018-104E
Perigee: 419.4 km
Apogee: 430.0 km
Inclination: 85.0 °
Period: 92.9 minutes
Semi major axis: 6795 km
RCS: Unknown
Launch date: December 16, 2018
Source: United States (US)
Launch site: Rocket Lab Launch Complex (RLLC)
aabbcc
Your satellite tracking list
Your tracking list is empty




NASA's NSSDC Master Catalog

Two Line Element Set (TLE):
1 43853U 18104E   22231.41159037  .00074204  00000-0  13266-2 0  9994
2 43853  85.0239   2.9220 0007789 347.7317  12.3748 15.49706308204846
Source of the keplerian elements: Caltech